Regional Weather Roundup
Issued by NWS

Home | Current Version | Previous Version | Text Only | Print | Product List | Glossary On
Versions: 1 2 3 4 5 6 7 8 9 10 11 12 13 14 15 16 17 18 19 20 21 22 23 24 25 26 27 28 29 30 31 32 33 34 35 36 37 38 39 40 41 42 43 44 45 46 47 48 49 50
000
ASUS45 KABQ 191610
RWRNM
WEATHER ROUNDUP FOR NEW MEXICO
NATIONAL WEATHER SERVICE ALBUQUERQUE NM
1000 AM MDT SUN APR 19 2015

NOTE: "FAIR" MEANS FEW OR NO CLOUDS BELOW 12,000 FEET AGL WITH NO
       SIGNIFICANT WEATHER OR OBSTRUCTIONS TO VISION.

      THIS PRODUCT IS RELEASED AS TWO VERSIONS.  ONE VERSION NEAR
      THE TOP OF THE HOUR CONTAINING PRELIMINARY DATA FROM ALBUQUERQUE
      AND OTHER STATIONS.  A FINAL VERSION WITH ADDITIONAL DATA IS
      ISSUED ABOUT 10 MINUTES AFTER THE HOUR.

NMZ501-503-504-510>518-191700-
NORTHWEST PLATEAU/NORTHCENTRAL MOUNTAINS

CITY           SKY/WX    TMP DP  RH WIND       PRES   REMARKS
FARMINGTON     SUNNY     47  32  56 SE3       30.08F
LOS ALAMOS     SUNNY     45  23  42 N14G23    30.11S
SANTA FE       SUNNY     51  24  34 N17G28    30.07R
ANGEL FIRE     FAIR      41  20  43 N9G18     30.11S

$$
NMZ402-403-502-505>509-191700-
WESTCENTRAL MOUNTAINS/SOUTHWEST MOUNTAINS

CITY           SKY/WX    TMP DP  RH WIND       PRES   REMARKS
GALLUP         SUNNY     52  27  38 NE3       30.11F
GRANTS         SUNNY     53  28  38 N8G23     30.12S
SILVER CITY      N/A     64  16  15 NW15G23   30.08S

$$
NMZ407-409-411-412-191700-
SOUTHERN DESERTS

CITY           SKY/WX    TMP DP  RH WIND       PRES   REMARKS
LORDSBURG      FAIR      66  18  15 NW8       30.05F
DEMING         SUNNY     67  20  16 W12       30.03F
LAS CRUCES     SUNNY     66  25  21 E5        30.04S
ALAMOGORDO     SUNNY     66  27  22 N9G18     30.02R
T OR C         SUNNY     61  24  24 E7        30.04S

$$
NMZ519>523-191700-
CENTRAL VALLEYS/CENTRAL HIGHLANDS

CITY           SKY/WX    TMP DP  RH WIND       PRES   REMARKS
ALBUQUERQUE    MOSUNNY   53  30  41 CALM      30.08F
DOUBLE EAGLE   SUNNY     52  30  43 N7        30.09S
MORIARTY ARPT  FAIR      55  17  22 N13       30.08S
CLINES CORNERS SUNNY     49  24  37 CALM      30.07S
BELEN          FAIR      56  30  37 NW7       30.08S
SOCORRO        FAIR      58  28  31 NE8       30.06S

$$
NMZ524>526-539-540-191700-
SOUTHCENTRAL MOUNTAINS

CITY           SKY/WX    TMP DP  RH WIND       PRES   REMARKS
RUIDOSO        SUNNY     54  27  35 NW8G16    30.11S

$$
NMZ527>531-191700-
NORTHEAST HIGHLANDS/NORTHEAST PLAINS

CITY           SKY/WX    TMP DP  RH WIND       PRES   REMARKS
LAS VEGAS      SUNNY     49  22  34 NE13G23   30.09R
RATON          MOSUNNY   44  27  51 N28G37    30.08F
CLAYTON        CLOUDY    45  34  65 N28G39    30.04R

$$
NMZ532>537-191700-
EASTCENTRAL PLAINS

CITY           SKY/WX    TMP DP  RH WIND       PRES   REMARKS
TUCUMCARI      MOSUNNY   60  32  34 N35G45    30.02R
CANNON AFB     NOT AVBL
CLOVIS AIRPORT SUNNY    N/A N/A N/A N35G45    30.00R

$$
NMZ028-029-538-191700-
SOUTHEAST PLAINS

CITY           SKY/WX    TMP DP  RH WIND       PRES   REMARKS
ROSWELL        SUNNY     60  32  34 N15       30.04R
ARTESIA        SUNNY     61  34  36 NE17      30.04R
CARLSBAD       SUNNY     65  34  31 N13       30.00R
HOBBS          SUNNY     59  32  36 N21       30.01R


$$


USA.gov is the U.S. government's official web portal to all federal, state and local government web resources and services.